EW5095 Weather Reports


time (UTC)temp
F
wind
direction
speed
knots
gust
knots
rain 1hr
in
rain 24hr
in
rain mn
in
humidity
%
barometer
mb
20260510060505 79 214 13.0 19.1 0.00 0.00 0.00 38 1005.8
20260510060005 80 214 12.2 19.1 0.00 0.00 0.00 37 1005.9
20260510055006 80 198 12.2 20.9 0.00 0.00 0.00 37 1005.8
20260510054504 80 203 12.2 20.9 0.00 0.00 0.00 36 1005.8
20260510054005 80 204 12.2 20.9 0.00 0.00 0.00 36 1005.7
20260510053504 80 213 13.0 20.9 0.00 0.00 0.00 36 1005.7
20260510053005 80 209 14.8 22.6 0.00 0.00 0.00 35 1005.6
20260510052005 80 212 13.0 21.7 0.00 0.00 0.00 35 1005.6
20260510051505 81 212 13.9 20.9 0.00 0.00 0.00 34 1005.8
20260510051004 81 202 13.9 20.9 0.00 0.00 0.00 34 1005.9
20260510050505 81 208 13.9 19.1 0.00 0.00 0.00 33 1005.9
20260510050004 81 209 13.0 19.1 0.00 0.00 0.00 33 1005.9
20260510045005 81 194 11.3 20.0 0.00 0.00 0.00 32 1005.9
20260510044504 82 199 11.3 19.1 0.00 0.00 0.00 31 1005.9
20260510044004 82 205 11.3 17.4 0.00 0.00 0.00 31 1005.9
20260510043505 82 205 11.3 17.4 0.00 0.00 0.00 30 1006.1
20260510043005 83 202 12.2 20.0 0.00 0.00 0.00 30 1006.0
20260510042504 83 194 13.0 20.0 0.00 0.00 0.00 30 1006.0
20260510042004 83 217 13.9 20.0 0.00 0.00 0.00 29 1005.9
20260510041505 83 207 13.9 20.0 0.00 0.00 0.00 29 1005.9
20260510041004 83 208 12.2 19.1 0.00 0.00 0.00 29 1005.8
20260510040504 83 199 12.2 24.3 0.00 0.00 0.00 29 1005.8
20260510040004 83 203 11.3 24.3 0.00 0.00 0.00 29 1005.9
20260510035504 83 209 11.3 24.3 0.00 0.00 0.00 28 1006.0
20260510035005 83 211 12.2 24.3 0.00 0.00 0.00 28 1006.0
20260510034005 84 213 11.3 24.3 0.00 0.00 0.00 28 1005.8
20260510033505 84 215 11.3 18.2 0.00 0.00 0.00 28 1005.9
20260510033005 84 208 11.3 18.2 0.00 0.00 0.00 27 1005.9
20260510032504 84 208 11.3 18.2 0.00 0.00 0.00 27 1005.8
20260510032004 84 205 11.3 18.2 0.00 0.00 0.00 27 1005.7
20260510031504 84 204 10.4 18.2 0.00 0.00 0.00 26 1005.7
20260510031005 84 195 8.7 18.2 0.00 0.00 0.00 26 1005.7
20260510030504 85 207 9.6 15.6 0.00 0.00 0.00 26 1005.6
20260510030004 85 204 10.4 14.8 0.00 0.00 0.00 26 1005.6
20260510025504 85 201 8.7 14.8 0.00 0.00 0.00 26 1005.5
20260510025005 85 205 8.7 14.8 0.00 0.00 0.00 26 1005.5
20260510024004 85 204 8.7 15.6 0.00 0.00 0.00 26 1005.4
20260510023505 86 193 6.1 15.6 0.00 0.00 0.00 25 1005.3
20260510022505 86 198 6.1 10.4 0.00 0.00 0.00 23 1005.0
20260510022004 87 204 6.1 10.4 0.00 0.00 0.00 23 1005.1
20260510021505 87 206 5.2 8.7 0.00 0.00 0.00 22 1005.0
20260510021004 87 210 6.1 10.4 0.00 0.00 0.00 21 1005.0
20260510020504 88 208 7.0 11.3 0.00 0.00 0.00 21 1004.8
20260510020005 88 217 7.8 11.3 0.00 0.00 0.00 21 1004.7
20260510015504 88 213 7.8 13.0 0.00 0.00 0.00 20 1004.8
20260510015005 89 215 7.8 13.0 0.00 0.00 0.00 20 1004.6
20260510014504 89 212 7.0 13.0 0.00 0.00 0.00 19 1004.7
20260510014004 89 222 7.8 13.9 0.00 0.00 0.00 18 1004.7
20260510013005 90 220 7.0 11.3 0.00 0.00 0.00 18 1004.5
20260510012505 91 216 7.0 11.3 0.00 0.00 0.00 18 1004.4
20260510012004 91 215 6.1 11.3 0.00 0.00 0.00 17 1004.4
20260510011504 91 215 7.0 12.2 0.00 0.00 0.00 17 1004.4
20260510011004 92 215 8.7 15.6 0.00 0.00 0.00 16 1004.4
20260510010504 92 216 11.3 15.6 0.00 0.00 0.00 16 1004.3
20260510010004 92 228 10.4 17.4 0.00 0.00 0.00 16 1004.3
20260510005504 93 207 8.7 17.4 0.00 0.00 0.00 16 1004.3
20260510005005 93 222 10.4 15.6 0.00 0.00 0.00 16 1004.3
20260510004004 94 216 10.4 17.4 0.00 0.00 0.00 16 1004.2
20260510003504 94 225 10.4 17.4 0.00 0.00 0.00 16 1004.4
20260510003004 94 232 11.3 18.2 0.00 0.00 0.00 16 1004.3
20260510002504 94 239 10.4 18.2 0.00 0.00 0.00 16 1004.3
20260510002004 94 218 10.4 17.4 0.00 0.00 0.00 16 1004.3
20260510001504 95 213 10.4 17.4 0.00 0.00 0.00 15 1004.4
20260510001004 95 238 11.3 19.1 0.00 0.00 0.00 15 1004.5
20260510000004 95 207 12.2 18.2 0.00 0.00 0.00 16 1004.4
20260509235504 95 211 12.2 17.4 0.00 0.00 0.00 17 1004.4
20260509235004 96 210 12.2 20.0 0.00 0.00 0.00 16 1004.5
20260509234005 96 226 10.4 19.1 0.00 0.00 0.00 16 1004.5
20260509233504 96 190 11.3 19.1 0.00 0.00 0.00 16 1004.5
20260509233004 96 225 12.2 19.1 0.00 0.00 0.00 16 1004.7
20260509232504 96 212 13.0 20.9 0.00 0.00 0.00 16 1004.8
20260509232004 96 205 12.2 20.9 0.00 0.00 0.00 16 1004.7
20260509231505 97 207 10.4 18.2 0.00 0.00 0.00 15 1004.6
20260509231004 97 202 11.3 18.2 0.00 0.00 0.00 15 1004.8
20260509230504 97 221 11.3 17.4 0.00 0.00 0.00 15 1004.9
20260509230004 97 240 10.4 17.4 0.00 0.00 0.00 17 1004.9
20260509225005 97 225 10.4 24.3 0.00 0.00 0.00 15 1005.2
20260509224004 97 230 8.7 19.1 0.00 0.00 0.00 17 1005.1
20260509223504 97 236 9.6 19.1 0.00 0.00 0.00 17 1005.2
20260509223004 97 212 10.4 15.6 0.00 0.00 0.00 16 1005.4
20260509222504 98 212 11.3 20.9 0.00 0.00 0.00 16 1005.5
20260509222004 98 230 10.4 20.9 0.00 0.00 0.00 16 1005.6
20260509221004 98 260 12.2 22.6 0.00 0.00 0.00 17 1005.7
20260509220504 97 215 12.2 22.6 0.00 0.00 0.00 18 1005.7
20260509215503 97 215 11.3 18.2 0.00 0.00 0.00 18 1005.8
20260509215004 97 247 12.2 20.9 0.00 0.00 0.00 18 1005.8
20260509214504 97 222 11.3 20.9 0.00 0.00 0.00 17 1005.8
20260509214005 97 216 10.4 17.4 0.00 0.00 0.00 18 1005.9
20260509213504 97 225 10.4 17.4 0.00 0.00 0.00 18 1006.1
20260509212504 97 265 10.4 20.9 0.00 0.00 0.00 18 1006.1
20260509212004 97 237 9.6 20.9 0.00 0.00 0.00 18 1006.3
20260509211504 96 234 11.3 18.2 0.00 0.00 0.00 19 1006.2
20260509211004 96 204 12.2 20.9 0.00 0.00 0.00 18 1006.3
20260509210503 96 213 11.3 20.9 0.00 0.00 0.00 18 1006.5
20260509205004 97 194 11.3 18.2 0.00 0.00 0.00 18 1006.8
20260509203504 97 252 12.2 19.1 0.00 0.00 0.00 19 1007.1
20260509203005 97 256 11.3 19.1 0.00 0.00 0.00 17 1007.2
20260509202505 97 237 10.4 19.1 0.00 0.00 0.00 17 1007.3
20260509202004 97 203 10.4 20.0 0.00 0.00 0.00 19 1007.3
20260509201505 97 206 11.3 22.6 0.00 0.00 0.00 18 1007.5
20260509200004 96 233 11.3 19.1 0.00 0.00 0.00 19 1007.7
20260509195505 97 230 11.3 19.1 0.00 0.00 0.00 19 1007.7
20260509195004 97 207 10.4 17.4 0.00 0.00 0.00 20 1007.8
20260509194004 96 230 10.4 15.6 0.00 0.00 0.00 19 1007.9
20260509193504 96 205 10.4 15.6 0.00 0.00 0.00 19 1008.0
20260509193005 96 241 7.8 17.4 0.00 0.00 0.00 21 1008.1
20260509192504 95 234 8.7 17.4 0.00 0.00 0.00 22 1008.1
20260509192004 95 265 10.4 13.9 0.00 0.00 0.00 22 1008.2
20260509191504 94 220 10.4 19.1 0.00 0.00 0.00 23 1008.3
20260509191004 94 216 10.4 19.1 0.00 0.00 0.00 23 1008.3
20260509190505 94 225 8.7 18.2 0.00 0.00 0.00 23 1008.3
20260509185504 93 219 10.4 14.8 0.00 0.00 0.00 25 1008.5
20260509185005 93 241 10.4 14.8 0.00 0.00 0.00 25 1008.7
20260509184504 92 227 10.4 14.8 0.00 0.00 0.00 27 1008.8
20260509184005 92 223 10.4 15.6 0.00 0.00 0.00 27 1008.9
20260509183005 92 206 10.4 17.4 0.00 0.00 0.00 28 1008.9
20260509182004 92 218 8.7 14.8 0.00 0.00 0.00 29 1009.0
20260509181504 92 216 9.6 15.6 0.00 0.00 0.00 28 1009.0
20260509180505 91 245 8.7 14.8 0.00 0.00 0.00 30 1009.3
20260509180004 91 207 7.8 14.8 0.00 0.00 0.00 31 1009.4
20260509175504 90 212 8.7 17.4 0.00 0.00 0.00 31 1009.5
20260509175005 90 202 10.4 17.4 0.00 0.00 0.00 32 1009.7
20260509174505 90 254 10.4 14.8 0.00 0.00 0.00 33 1009.8
20260509174005 89 209 8.7 14.8 0.00 0.00 0.00 34 1009.8
20260509173504 89 200 8.7 14.8 0.00 0.00 0.00 34 1009.9
20260509173005 88 263 9.6 14.8 0.00 0.00 0.00 35 1009.9
20260509172004 87 202 8.7 13.9 0.00 0.00 0.00 37 1010.0
20260509171504 87 203 7.8 13.0 0.00 0.00 0.00 36 1010.3
20260509171006 87 214 7.8 15.6 0.00 0.00 0.00 37 1010.3
20260509170504 87 191 8.7 15.6 0.00 0.00 0.00 37 1010.4
20260509170004 86 229 8.7 14.8 0.00 0.00 0.00 38 1010.4
20260509165504 86 237 10.4 14.8 0.00 0.00 0.00 39 1010.4
20260509165004 85 216 10.4 15.6 0.00 0.00 0.00 39 1010.4
20260509164004 85 224 8.7 15.6 0.00 0.00 0.00 40 1010.6
20260509163504 84 214 8.7 13.9 0.00 0.00 0.00 41 1010.5
20260509163004 84 206 8.7 13.9 0.00 0.00 0.00 41 1010.6
20260509162505 84 189 8.7 13.9 0.00 0.00 0.00 41 1010.6
20260509162004 83 221 7.8 13.9 0.00 0.00 0.00 44 1010.8
20260509161004 82 223 7.8 14.8 0.00 0.00 0.00 45 1010.8
20260509155504 81 221 8.7 13.9 0.00 0.00 0.00 48 1010.9
20260509155005 81 191 8.7 13.9 0.00 0.00 0.00 48 1010.9
20260509154504 81 214 8.7 13.9 0.00 0.00 0.00 49 1010.9
20260509153504 80 202 6.1 13.9 0.00 0.00 0.00 50 1011.1
20260509153004 80 197 6.1 12.2 0.00 0.00 0.00 51 1011.1
20260509152504 80 194 7.0 12.2 0.00 0.00 0.00 51 1011.1
20260509152004 80 228 6.1 12.2 0.00 0.00 0.00 51 1011.1
20260509151504 79 250 7.0 11.3 0.00 0.00 0.00 51 1011.1
20260509151004 79 247 6.1 10.4 0.00 0.00 0.00 52 1011.1
20260509150004 78 230 6.1 11.3 0.00 0.00 0.00 55 1011.3
20260509145504 77 230 6.1 11.3 0.00 0.00 0.00 56 1011.3
20260509145004 77 251 5.2 10.4 0.00 0.00 0.00 56 1011.3
20260509144504 76 245 4.3 8.7 0.00 0.00 0.00 58 1011.4
20260509143504 75 249 4.3 8.7 0.00 0.00 0.00 59 1011.4
20260509143004 74 242 4.3 8.7 0.00 0.00 0.00 60 1011.5
20260509142504 73 230 5.2 8.7 0.00 0.00 0.00 61 1011.6
20260509142004 72 223 5.2 8.7 0.00 0.00 0.00 61 1011.6
20260509141504 72 237 5.2 8.7 0.00 0.00 0.00 62 1011.7
20260509141005 71 228 5.2 10.4 0.00 0.00 0.00 62 1011.5
20260509140504 71 197 5.2 10.4 0.00 0.00 0.00 64 1011.6
20260509140005 70 183 4.3 10.4 0.00 0.00 0.00 66 1011.6
20260509135504 69 215 1.7 10.4 0.00 0.00 0.00 65 1011.8
20260509135004 67 237 1.7 4.3 0.00 0.00 0.00 65 1011.8
20260509134503 66 243 0.9 2.6 0.00 0.00 0.00 64 1011.8
20260509134004 65 296 0.0 0.9 0.00 0.00 0.00 63 1011.7
20260509133503 64 296 0.9 1.7 0.00 0.00 0.00 62 1011.7
20260509133004 63 296 0.0 1.7 0.00 0.00 0.00 64 1011.6
20260509132504 61 296 0.0 1.7 0.00 0.00 0.00 65 1011.5
20260509132003 60 296 0.9 2.6 0.00 0.00 0.00 65 1011.3
20260509131504 59 296 0.9 2.6 0.00 0.00 0.00 65 1011.4
20260509131004 58 296 0.9 2.6 0.00 0.00 0.00 64 1011.2
20260509130503 58 296 0.9 2.6 0.00 0.00 0.00 63 1011.0
20260509130003 57 296 0.9 2.6 0.00 0.00 0.00 63 1011.2
20260509125503 56 296 1.7 2.6 0.00 0.00 0.00 63 1011.3
20260509125006 56 296 1.7 2.6 0.00 0.00 0.00 61 1011.1
20260509124506 55 295 1.7 2.6 0.00 0.00 0.00 60 1011.2
20260509123506 55 288 0.9 2.6 0.00 0.00 0.00 58 1011.2
20260509123006 55 288 0.9 2.6 0.00 0.00 0.00 58 1011.1
20260509122506 55 288 0.9 2.6 0.00 0.00 0.00 58 1011.1
20260509121506 56 211 0.9 1.7 0.00 0.00 0.00 57 1010.9
20260509121006 56 211 0.9 2.6 0.00 0.00 0.00 57 1010.9
20260509120506 56 211 1.7 2.6 0.00 0.00 0.00 57 1010.9
20260509120006 56 211 1.7 2.6 0.00 0.00 0.00 57 1010.8
20260509115506 56 211 1.7 2.6 0.00 0.00 0.00 57 1010.8
20260509114506 57 313 0.9 1.7 0.00 0.00 0.00 57 1010.7
20260509114007 57 313 0.9 1.7 0.00 0.00 0.00 57 1010.6
20260509113505 57 313 0.9 2.6 0.00 0.00 0.00 57 1010.6
20260509113006 58 313 0.9 2.6 0.00 0.00 0.00 57 1010.7
20260509112506 58 313 1.7 2.6 0.00 0.00 0.00 56 1010.7
20260509112006 58 313 0.9 2.6 0.00 0.00 0.00 56 1010.6
20260509111506 58 313 0.9 2.6 0.00 0.00 0.00 55 1010.7
20260509111005 59 313 0.9 2.6 0.00 0.00 0.00 55 1010.6
20260509110505 60 171 0.0 1.7 0.00 0.00 0.00 54 1010.7
20260509110005 60 171 0.0 1.7 0.00 0.00 0.00 53 1010.6
20260509105505 60 171 0.0 1.7 0.00 0.00 0.00 52 1010.6
20260509105006 61 171 0.9 2.6 0.00 0.00 0.00 52 1010.5
20260509104506 61 171 1.7 2.6 0.00 0.00 0.00 52 1010.5
20260509104006 61 171 1.7 2.6 0.00 0.00 0.00 52 1010.4
20260509103005 62 87 3.5 6.1 0.00 0.00 0.00 53 1009.9
20260509102505 62 84 4.3 6.1 0.00 0.00 0.00 53 1010.1
20260509102006 62 64 4.3 8.7 0.00 0.00 0.00 52 1010.1
20260509101506 62 67 4.3 8.7 0.00 0.00 0.00 52 1009.9
20260509101005 62 55 4.3 8.7 0.00 0.00 0.00 52 1009.8
20260509100505 62 45 5.2 8.7 0.00 0.00 0.00 51 1009.8
20260509100006 63 40 5.2 10.4 0.00 0.00 0.00 49 1009.7
20260509095506 63 59 5.2 10.4 0.00 0.00 0.00 49 1009.8
20260509095006 63 47 5.2 10.4 0.00 0.00 0.00 48 1009.9
20260509094506 63 46 4.3 8.7 0.00 0.00 0.00 48 1009.9
20260509094006 63 50 2.6 5.2 0.00 0.00 0.00 47 1009.9
20260509093506 63 46 2.6 5.2 0.00 0.00 0.00 45 1009.8
20260509093005 62 46 2.6 6.1 0.00 0.00 0.00 44 1009.7
20260509092506 62 40 2.6 6.1 0.00 0.00 0.00 43 1009.8
20260509092005 62 51 2.6 5.2 0.00 0.00 0.00 41 1009.9
20260509091006 62 20 2.6 5.2 0.00 0.00 0.00 40 1009.8
20260509090506 62 56 2.6 6.1 0.00 0.00 0.00 39 1010.0
20260509090005 62 42 2.6 6.1 0.00 0.00 0.00 39 1010.1
20260509085506 63 70 2.6 5.2 0.00 0.00 0.00 39 1010.2
20260509085006 63 82 2.6 5.2 0.00 0.00 0.00 39 1010.3
20260509084505 62 67 2.6 4.3 0.00 0.00 0.00 38 1010.2
20260509083506 62 24 2.6 2.6 0.00 0.00 0.00 38 1010.2
20260509083006 63 5 2.6 2.6 0.00 0.00 0.00 38 1010.1
20260509082506 63 3 2.6 2.6 0.00 0.00 0.00 38 1010.0
20260509082005 63 325 2.6 5.2 0.00 0.00 0.00 37 1010.0
20260509081006 64 254 2.6 5.2 0.00 0.00 0.00 38 1010.0
20260509080505 64 342 2.6 5.2 0.00 0.00 0.00 37 1010.0
20260509080005 64 343 2.6 2.6 0.00 0.00 0.00 37 1010.0
20260509075005 64 263 0.9 2.6 0.00 0.00 0.00 36 1010.2
20260509074505 65 209 0.9 2.6 0.00 0.00 0.00 36 1010.4
20260509073505 65 209 2.6 6.1 0.00 0.00 0.00 36 1010.6
20260509073005 66 351 1.7 2.6 0.00 0.00 0.00 36 1010.5
20260509072505 66 342 0.9 2.6 0.00 0.00 0.00 36 1010.4
20260509072005 66 342 0.0 1.7 0.00 0.00 0.00 35 1010.5
20260509071005 66 342 1.7 2.6 0.00 0.00 0.00 35 1010.4
20260509070505 66 342 1.7 2.6 0.00 0.00 0.00 35 1010.4
20260509070005 66 327 2.6 4.3 0.00 0.00 0.00 35 1010.5
20260509065506 66 338 2.6 4.3 0.00 0.00 0.00 35 1010.4
20260509065005 66 335 2.6 4.3 0.00 0.00 0.00 35 1010.4
20260509064505 66 339 2.6 5.2 0.00 0.00 0.00 35 1010.4
20260509064005 66 333 2.6 5.2 0.00 0.00 0.00 35 1010.5
20260509063505 67 349 2.6 4.3 0.00 0.00 0.00 35 1010.4
20260509063005 67 329 2.6 4.3 0.00 0.00 0.00 34 1010.4
20260509062506 67 324 1.7 2.6 0.00 0.00 0.00 34 1010.3
20260509062005 68 278 1.7 2.6 0.00 0.00 0.00 33 1010.3